Nantucket, MA

12:56 AM EDT on August 20, 2017 (GMT -0400)
Nantucket Memorial

Weather History for KACK - January, 2012

Change the Weather History Date:

Tuesday, January 24, 2012

  Actual Average Record
Temperature  
Mean Temperature 46 °F -  
Max Temperature 50 °F 41 °F 63 °F (1967)
Min Temperature 41 °F 25 °F 7 °F (2011)
Degree Days  
Heating Degree Days 20    
Moisture  
Dew Point 47 °F    
Average Humidity 98    
Maximum Humidity 100    
Minimum Humidity 86    
Precipitation  
Precipitation 0.10 in - - ()
Sea Level Pressure  
Sea Level Pressure 29.96 in    
Wind  
Wind Speed 13 mph (SW)    
Max Wind Speed 17 mph    
Max Gust Speed 22 mph    
Visibility 2 miles    
Events Fog , Rain    
Averages and records for this station are not official NWS values.
T = Trace of Precipitation, MM = Missing Value Source: NWS Daily Summary

Daily Weather History Graph

Daily Weather History Graph

Search for Another Location

Airport or City:

Trip Planner

Search our weather history database for the weather conditions in past years. The results will help you decide how hot, cold, wet, or windy it might be!

Date:

Astronomy

Jan. 24, 2012 Rise Set
Actual Time 6:58 AM EST 4:46 PM EST
Civil Twilight 6:28 AM EST 5:16 PM EST
Nautical Twilight 5:55 AM EST 5:49 PM EST
Astronomical Twilight 5:22 AM EST 6:22 PM EST
Moon 7:25 AM EST (1/24) 6:35 PM EST (1/24)
Length of Visible Light 10h 47m
Length of Day
9h 47m
New Moon, 2% of the Moon is Illuminated
Jan 24
New Moon
Jan 30
First Quarter
Feb 7
Full
Feb 14
Last Quarter
Feb 21
New

Hourly Weather History & Observations

Time (EST) Temp. Windchill Dew Point Humidity Pressure Visibility Wind Dir Wind Speed Gust Speed Precip Events Conditions
12:37 AM 48.2 °F - 48.2 °F 100% 29.96 in 0.5 mi South 12.7 mph - 0.00 in Fog Fog
12:53 AM 48.9 °F - 48.0 °F 97% 29.96 in 0.8 mi South 13.8 mph - 0.00 in   Mist
1:00 AM 48.2 °F - 48.2 °F 100% 29.96 in 0.8 mi South 13.8 mph - N/A   Overcast
1:08 AM 50.0 °F - 48.2 °F 94% 29.96 in 2.0 mi South 16.1 mph - 0.00 in Rain Light Rain
1:53 AM 50.0 °F - 48.9 °F 96% 29.96 in 2.0 mi South 15.0 mph - 0.09 in Rain Light Rain
2:19 AM 48.2 °F - 48.2 °F 100% 29.96 in 1.0 mi South 13.8 mph - 0.00 in Rain Light Rain
2:24 AM 48.2 °F - 48.2 °F 100% 29.95 in 0.8 mi South 13.8 mph 21.9 mph 0.00 in Rain Light Rain
2:53 AM 48.9 °F - 48.0 °F 97% 29.94 in 0.8 mi South 15.0 mph - 0.00 in   Mist
3:03 AM 48.2 °F - 48.2 °F 100% 29.94 in 1.2 mi South 16.1 mph - N/A   Overcast
3:23 AM 48.2 °F - 48.2 °F 100% 29.94 in 2.5 mi South 13.8 mph - N/A   Overcast
3:34 AM 48.2 °F - 48.2 °F 100% 29.94 in 3.0 mi SSW 15.0 mph - N/A   Overcast
3:46 AM 48.2 °F - 48.2 °F 100% 29.94 in 3.0 mi SSW 13.8 mph - N/A   Overcast
3:53 AM 48.0 °F - 48.0 °F 100% 29.94 in 3.0 mi South 13.8 mph - N/A   Overcast
4:23 AM 48.2 °F - 48.2 °F 100% 29.93 in 2.5 mi South 13.8 mph - 0.01 in Rain Light Rain
4:28 AM 48.2 °F - 48.2 °F 100% 29.94 in 2.5 mi South 11.5 mph - 0.01 in Rain Light Rain
4:36 AM 48.2 °F - 48.2 °F 100% 29.94 in 1.5 mi South 12.7 mph - 0.01 in   Overcast
4:50 AM 50.0 °F - 48.2 °F 94% 29.94 in 2.0 mi SSW 17.3 mph - 0.01 in   Overcast
4:51 AM 50.0 °F - 48.9 °F 96% 29.94 in 2.0 mi SSW 16.1 mph - 0.01 in   Overcast
4:57 AM 48.2 °F - 48.2 °F 100% 29.94 in 1.8 mi SSW 15.0 mph - N/A   Overcast
5:38 AM 48.2 °F - 48.2 °F 100% 29.95 in 0.8 mi SSW 17.3 mph - N/A   Overcast
5:53 AM 48.2 °F - 48.2 °F 100% 29.95 in 0.8 mi SSW 13.8 mph - N/A   Mist
6:53 AM 48.2 °F - 48.2 °F 100% 29.96 in 0.8 mi SW 10.4 mph - N/A   Mist
7:15 AM 46.4 °F 41.9 °F 46.4 °F 100% 29.96 in 0.5 mi SW 9.2 mph - N/A Fog Fog
7:32 AM 46.4 °F 41.9 °F 46.4 °F 100% 29.95 in 0.5 mi SW 9.2 mph - N/A Fog Fog
7:46 AM 46.4 °F 41.9 °F 46.4 °F 100% 29.96 in 0.5 mi SSW 9.2 mph - N/A Fog Fog
7:53 AM 46.9 °F - 46.9 °F 100% 29.96 in 0.5 mi SW 9.2 mph - N/A Fog Fog
8:16 AM 46.4 °F 41.9 °F 46.4 °F 100% 29.97 in 0.8 mi SW 9.2 mph - N/A   Mist
8:26 AM 46.4 °F 41.9 °F 46.4 °F 100% 29.97 in 0.5 mi SW 9.2 mph - N/A Fog Fog
8:53 AM 46.4 °F 41.9 °F 46.4 °F 100% 29.98 in 0.5 mi SW 9.2 mph - N/A Fog Fog
9:36 AM 46.4 °F 41.5 °F 46.4 °F 100% 29.99 in 0.2 mi SW 10.4 mph - N/A Fog Fog
9:53 AM 46.9 °F - 46.0 °F 97% 29.99 in 0.2 mi SW 10.4 mph - N/A Fog Fog
10:08 AM 48.2 °F - 48.2 °F 100% 29.98 in 0.2 mi WSW 13.8 mph - N/A Fog Fog
10:13 AM 48.2 °F - 48.2 °F 100% 29.99 in 0.2 mi WSW 16.1 mph - N/A Fog Fog
10:53 AM 46.9 °F - 46.9 °F 100% 29.98 in 0.2 mi SW 13.8 mph - N/A Fog Fog
11:12 AM 48.2 °F - 48.2 °F 100% 29.97 in 0.8 mi WSW 13.8 mph - N/A   Mist
11:53 AM 46.0 °F 41.4 °F 46.0 °F 100% 29.96 in 0.2 mi SW 9.2 mph - N/A Fog Fog
12:24 PM 48.2 °F - 48.2 °F 100% 29.95 in 3.0 mi WSW 16.1 mph - N/A   Overcast
12:44 PM 46.4 °F 41.1 °F 46.4 °F 100% 29.95 in 5.0 mi SW 11.5 mph - N/A   Scattered Clouds
12:53 PM 48.0 °F - 46.0 °F 93% 29.94 in 5.0 mi SW 12.7 mph - N/A   Scattered Clouds
1:53 PM 48.9 °F - 45.0 °F 86% 29.94 in 6.0 mi SW 11.5 mph - N/A   Clear
2:53 PM 46.9 °F - 44.1 °F 90% 29.94 in 6.0 mi SW 10.4 mph - N/A   Clear
4:53 PM - - - N/A% 29.97 in 4.0 mi SW 9.2 mph - N/A   Clear
5:53 PM 42.8 °F 37.5 °F 42.1 °F 97% 29.97 in 4.0 mi SW 9.2 mph - N/A   Clear
6:53 PM 45.0 °F 38.9 °F 43.0 °F 93% 29.98 in 6.0 mi WSW 12.7 mph - N/A   Clear
7:53 PM 44.1 °F 38.1 °F 42.1 °F 93% 29.98 in 8.0 mi West 11.5 mph - N/A   Clear
8:53 PM 43.0 °F 37.2 °F 41.0 °F 93% 29.99 in 8.0 mi West 10.4 mph - N/A   Clear
9:53 PM 43.0 °F 38.2 °F 39.9 °F 89% 30.01 in 9.0 mi NNW 8.1 mph - N/A   Scattered Clouds
10:53 PM 41.0 °F 36.4 °F 39.2 °F 93% 30.02 in 9.0 mi WNW 6.9 mph - N/A   Overcast
11:53 PM 42.1 °F 37.7 °F 39.0 °F 89% 30.02 in 9.0 mi NW 6.9 mph - N/A   Overcast